TimeCDT,TemperatureF,Dew PointF,Humidity,Sea Level PressureIn,VisibilityMPH,Wind Direction,Wind SpeedMPH,Gust SpeedMPH,PrecipitationIn,Events,Conditions,WindDirDegrees,DateUTC
12:15 AM,73.9,69.3,85,29.95,10.0,SSE,11.5,-,N/A,,Clear,150,2013-08-20 05:15:00
12:35 AM,73.8,69.3,86,29.95,10.0,SSE,10.4,-,N/A,,Clear,150,2013-08-20 05:35:00
12:55 AM,73.4,69.3,87,29.95,10.0,SSE,10.4,-,N/A,,Clear,150,2013-08-20 05:55:00
1:15 AM,73.4,69.3,87,29.95,10.0,SSE,10.4,17.3,N/A,,Clear,160,2013-08-20 06:15:00
1:35 AM,73.6,69.3,86,29.94,10.0,SSE,10.4,-,N/A,,Scattered Clouds,160,2013-08-20 06:35:00
1:55 AM,73.6,69.3,86,29.94,10.0,SSE,12.7,-,N/A,,Scattered Clouds,160,2013-08-20 06:55:00
2:15 AM,73.0,69.1,87,29.94,10.0,South,10.4,-,N/A,,Scattered Clouds,170,2013-08-20 07:15:00
2:35 AM,73.4,69.1,86,29.94,10.0,South,11.5,16.1,N/A,,Scattered Clouds,170,2013-08-20 07:35:00
2:55 AM,73.2,68.9,86,29.94,10.0,South,10.4,17.3,N/A,,Scattered Clouds,170,2013-08-20 07:55:00
3:15 AM,73.0,68.9,87,29.94,10.0,South,9.2,-,N/A,,Scattered Clouds,170,2013-08-20 08:15:00
3:35 AM,72.7,68.7,87,29.94,10.0,South,11.5,-,N/A,,Scattered Clouds,170,2013-08-20 08:35:00
3:55 AM,72.7,68.5,87,29.94,10.0,South,9.2,17.3,N/A,,Scattered Clouds,170,2013-08-20 08:55:00
4:15 AM,72.7,68.4,86,29.94,10.0,South,11.5,18.4,N/A,,Scattered Clouds,170,2013-08-20 09:15:00
4:35 AM,72.5,68.4,87,29.94,10.0,South,10.4,16.1,N/A,,Scattered Clouds,180,2013-08-20 09:35:00
4:55 AM,72.5,68.2,86,29.94,10.0,South,11.5,18.4,N/A,,Clear,180,2013-08-20 09:55:00
5:15 AM,72.5,68.2,86,29.94,10.0,South,11.5,18.4,N/A,,Clear,180,2013-08-20 10:15:00
5:35 AM,72.5,68.2,86,29.94,10.0,South,10.4,-,N/A,,Clear,190,2013-08-20 10:35:00
5:55 AM,72.1,68.0,87,29.94,10.0,South,10.4,-,N/A,,Clear,180,2013-08-20 10:55:00
6:15 AM,71.8,68.0,88,29.94,10.0,South,9.2,-,N/A,,Clear,180,2013-08-20 11:15:00
6:35 AM,71.6,68.0,88,29.94,10.0,South,5.8,-,N/A,,Clear,190,2013-08-20 11:35:00
6:55 AM,71.6,68.0,88,29.94,10.0,South,6.9,-,N/A,,Clear,190,2013-08-20 11:55:00
7:15 AM,71.6,68.0,88,29.95,10.0,South,6.9,-,N/A,,Clear,190,2013-08-20 12:15:00
7:35 AM,72.0,68.0,87,29.96,10.0,South,4.6,-,N/A,,Clear,180,2013-08-20 12:35:00
7:55 AM,72.1,68.0,87,29.96,10.0,SSW,6.9,-,N/A,,Clear,200,2013-08-20 12:55:00
8:15 AM,72.9,68.5,86,29.96,10.0,South,5.8,-,N/A,,Clear,190,2013-08-20 13:15:00
8:35 AM,73.6,68.5,84,29.96,10.0,SSW,6.9,-,N/A,,Clear,200,2013-08-20 13:35:00
8:55 AM,74.7,68.9,82,29.96,10.0,South,8.1,-,N/A,,Clear,180,2013-08-20 13:55:00
9:15 AM,75.6,69.3,81,29.96,10.0,SSW,8.1,17.3,N/A,,Clear,200,2013-08-20 14:15:00
9:35 AM,76.6,69.4,78,29.97,10.0,South,8.1,16.1,N/A,,Clear,190,2013-08-20 14:35:00
9:55 AM,77.4,69.4,76,29.97,10.0,South,5.8,-,N/A,,Clear,180,2013-08-20 14:55:00
10:15 AM,78.4,70.0,75,29.97,10.0,South,8.1,-,N/A,,Clear,190,2013-08-20 15:15:00
10:35 AM,79.5,69.8,72,29.97,10.0,SSW,11.5,17.3,N/A,,Clear,210,2013-08-20 15:35:00
10:55 AM,80.2,70.2,71,29.97,10.0,SSW,11.5,19.6,N/A,,Clear,200,2013-08-20 15:55:00
11:15 AM,81.3,70.2,69,29.97,10.0,South,12.7,18.4,N/A,,Clear,180,2013-08-20 16:15:00
11:35 AM,82.0,70.5,68,29.97,10.0,SSW,13.8,-,N/A,,Clear,200,2013-08-20 16:35:00
11:55 AM,82.9,70.2,65,29.96,10.0,SSW,12.7,17.3,N/A,,Clear,200,2013-08-20 16:55:00
12:15 PM,84.0,71.2,65,29.96,10.0,South,9.2,18.4,N/A,,Clear,190,2013-08-20 17:15:00
12:35 PM,84.6,70.7,63,29.96,10.0,SSW,11.5,18.4,N/A,,Clear,200,2013-08-20 17:35:00
12:55 PM,85.3,71.4,63,29.96,10.0,SSW,10.4,-,N/A,,Clear,200,2013-08-20 17:55:00
1:15 PM,85.8,71.2,62,29.95,10.0,SSW,11.5,-,N/A,,Clear,200,2013-08-20 18:15:00
1:35 PM,86.0,70.5,60,29.94,10.0,SSW,13.8,17.3,N/A,,Clear,200,2013-08-20 18:35:00
1:55 PM,86.4,70.7,59,29.94,10.0,SSW,11.5,16.1,N/A,,Clear,210,2013-08-20 18:55:00
2:15 PM,87.4,71.6,59,29.94,10.0,SSW,9.2,-,N/A,,Clear,200,2013-08-20 19:15:00
2:35 PM,87.8,72.0,59,29.93,10.0,South,9.2,18.4,N/A,,Clear,190,2013-08-20 19:35:00
2:55 PM,88.0,71.8,59,29.93,10.0,South,12.7,-,N/A,,Clear,180,2013-08-20 19:55:00
3:15 PM,88.0,71.6,58,29.92,10.0,SSW,13.8,17.3,N/A,,Clear,200,2013-08-20 20:15:00
3:35 PM,88.7,70.9,55,29.92,10.0,SSW,11.5,19.6,N/A,,Clear,200,2013-08-20 20:35:00
3:55 PM,88.9,72.0,57,29.91,10.0,South,12.7,17.3,N/A,,Clear,180,2013-08-20 20:55:00
4:15 PM,89.1,72.3,58,29.91,10.0,South,11.5,17.3,N/A,,Clear,190,2013-08-20 21:15:00
4:35 PM,88.7,71.8,57,29.91,10.0,South,10.4,19.6,N/A,,Clear,190,2013-08-20 21:35:00
4:55 PM,88.7,72.3,58,29.91,10.0,South,11.5,16.1,N/A,,Clear,180,2013-08-20 21:55:00
5:15 PM,88.5,72.7,59,29.91,10.0,South,9.2,-,N/A,,Clear,170,2013-08-20 22:15:00
5:35 PM,88.0,72.5,60,29.91,10.0,South,9.2,-,N/A,,Clear,170,2013-08-20 22:35:00
5:55 PM,87.8,72.5,60,29.91,10.0,South,10.4,-,N/A,,Clear,180,2013-08-20 22:55:00
6:15 PM,86.9,72.1,61,29.91,10.0,South,9.2,-,N/A,,Clear,180,2013-08-20 23:15:00
6:35 PM,86.0,72.5,64,29.91,10.0,South,8.1,-,N/A,,Clear,170,2013-08-20 23:35:00
6:55 PM,85.1,72.5,66,29.91,10.0,South,6.9,-,N/A,,Clear,170,2013-08-20 23:55:00
7:15 PM,84.4,72.0,66,29.91,10.0,SSE,6.9,-,N/A,,Clear,160,2013-08-21 00:15:00
7:35 PM,83.3,72.1,69,29.91,10.0,SSE,6.9,-,N/A,,Clear,160,2013-08-21 00:35:00
7:55 PM,82.9,71.6,68,29.91,10.0,SSE,9.2,-,N/A,,Clear,160,2013-08-21 00:55:00
8:15 PM,82.0,71.1,69,29.91,10.0,SSE,8.1,-,N/A,,Clear,160,2013-08-21 01:15:00
8:35 PM,81.5,70.7,70,29.92,10.0,SSE,6.9,-,N/A,,Clear,160,2013-08-21 01:35:00
8:55 PM,80.8,70.5,71,29.92,10.0,SSE,6.9,-,N/A,,Clear,150,2013-08-21 01:55:00
9:15 PM,80.4,70.2,71,29.92,10.0,SSE,8.1,-,N/A,,Clear,150,2013-08-21 02:15:00
9:35 PM,79.9,70.5,73,29.93,10.0,SSE,9.2,-,N/A,,Clear,150,2013-08-21 02:35:00
9:55 PM,79.7,70.3,73,29.94,10.0,SSE,10.4,-,N/A,,Clear,160,2013-08-21 02:55:00
10:15 PM,79.7,70.2,73,29.94,10.0,SSE,9.2,-,N/A,,Clear,160,2013-08-21 03:15:00
10:35 PM,79.7,69.8,72,29.94,10.0,SSE,11.5,16.1,N/A,,Clear,160,2013-08-21 03:35:00
10:55 PM,79.5,69.6,72,29.94,10.0,South,11.5,-,N/A,,Clear,170,2013-08-21 03:55:00
11:15 PM,79.3,69.4,72,29.93,10.0,SSE,13.8,17.3,N/A,,Clear,160,2013-08-21 04:15:00
11:35 PM,78.6,69.3,73,29.93,10.0,South,12.7,17.3,N/A,,Clear,170,2013-08-21 04:35:00
11:55 PM,77.9,69.1,74,29.94,10.0,SSE,10.4,16.1,N/A,,Clear,160,2013-08-21 04:55:00